Regional Weather Roundup
Issued by NWS

Home | Current Version | Previous Version | Text Only | Print | Product List | Glossary Off
Versions: 1 2 3 4 5 6 7 8 9 10 11 12 13 14 15 16 17 18 19 20 21 22 23 24 25 26 27 28 29 30 31 32 33 34 35 36 37 38 39 40 41 42 43 44 45 46 47 48 49 50

000
ASUS43 KMPX 301501
RWRMN
WEATHER ROUNDUP FOR MINNESOTA
NATIONAL WEATHER SERVICE TWIN CITIES/CHANHASSEN MN
1000 AM CDT MON MAY 30 2016


NOTE: "FAIR" INDICATES FEW OR NO CLOUDS BELOW 12,000 FEET WITH NO
SIGNIFICANT WEATHER AND/OR OBSTRUCTIONS TO VISIBILITY. N/A MEANS
CURRENT SKY AND/OR WEATHER CONDITIONS ARE NOT AVAILABLE.

MNZ060>063-068>070-301600-
   Twin Cities Metro

CITY           SKY/WX    TMP DP  RH WIND       PRES   REMARKS
TWIN CITIES    PTSUNNY   74  56  53 SW6       30.00F
ST PAUL        SUNNY     74  60  61 E5        30.00F
CRYSTAL        MOSUNNY   74  52  46 SW6       29.98F
BLAINE         MOSUNNY   73  61  64 S5        30.01S
EDEN PRAIRIE   SUNNY     74  56  53 SW7       29.99F
SOUTH ST PAUL  SUNNY     74  58  56 S3        30.00F
LAKE ELMO      FAIR      73  59  60 SW6       30.02F
$$
MNZ001>005-007-008-013>017-022>024-027-028-301600-
   Northwest Minnesota

CITY           SKY/WX    TMP DP  RH WIND       PRES   REMARKS
BEMIDJI        MOSUNNY   71  51  49 SW5       29.97S
HALLOCK        SUNNY     68  54  60 SW3       29.92R
ROSEAU         SUNNY     66  55  68 CALM      29.94S
WARROAD        SUNNY     61  57  88 E9        29.95S
THIEF RVR FALL CLOUDY    70  48  46 CALM      29.95S
CROOKSTON      MOSUNNY   70  55  60 S5        29.94S
FOSSTON        MOSUNNY   70  55  60 CALM      29.95F
DETROIT LAKES  SUNNY     72  52  49 SW8       29.98R
MOORHEAD       SUNNY     70  55  60 S7        29.94S
PARK RAPIDS    MOSUNNY   74  47  38 S9        29.97S
MAHNOMEN       FAIR      71  51  50 SW6       29.95S
$$
MNZ006-009>011-018-025>026-301600-
   North Central Minnesota

CITY           SKY/WX    TMP DP  RH WIND       PRES   REMARKS
BAUDETTE       SUNNY     67  54  63 CALM      29.95S
FLAG ISLAND    MOSUNNY   61  54  77 N6        29.95S
INTL FALLS     SUNNY     67  53  61 W6        29.95S
WASKISH        SUNNY     66  54  63 SW7       29.96S
BIG FORK       SUNNY     73  48  40 SW5       29.97S
LONGVILLE      SUNNY     72  54  53 SW7       29.97S
GRAND RAPIDS   SUNNY     70  50  49 S8        29.99S
CRANE LAKE     SUNNY     64  54  68 NW5       29.97S
ORR            SUNNY     66  52  59 CALM      29.94S
COOK           MOSUNNY   68  52  56 W8        29.97S
WALKER         FAIR      71  50  47 W5        29.96S
$$
MNZ012-019>021-037-301600-
   Northeast Minnesota

CITY           SKY/WX    TMP DP  RH WIND       PRES   REMARKS
DULUTH         SUNNY     72  50  45 W14       29.97S
ELY            SUNNY     66  52  59 W13       29.96S
HIBBING        SUNNY     69  50  50 NW9       29.97S
EVELETH        SUNNY     70  52  52 W9        29.98S
DULUTH HARBOR  SUNNY     72  55  56 SW8       29.96F
TWO HARBORS    SUNNY     73  57  56 W10G16    29.94S
SILVER BAY     SUNNY     73  50  43 W3        29.93S
GRAND MARAIS     N/A     52  44  74 SW13      29.91S
G MARAIS ARPRT MOSUNNY   63  48  59 W13G20    29.94S
$$
MNZ029>031-032-039>041-046>048-054>057-064-301600-
   West Central Minnesota

CITY           SKY/WX    TMP DP  RH WIND       PRES   REMARKS
FERGUS FALLS   SUNNY     73  52  46 CALM      29.93S
WHEATON        SUNNY     79  55  44 CALM      29.95S
MORRIS         SUNNY     75  54  46 CALM      29.95S
ALEXANDRIA     SUNNY     72  50  45 SW6       29.99F
ELBOW LAKE     FAIR      72  53  51 S5        29.96F
WADENA         SUNNY     73  50  43 SW6       29.97S
GLENWOOD       SUNNY     73  52  46 W6        29.99F
APPLETON       MOSUNNY   75  52  43 S5        29.95R
ORTONVILLE     SUNNY     73  55  53 S8        29.94S
MADISON        MOSUNNY   72  54  53 S10       29.96R
WILLMAR        FAIR      70  55  60 CALM      29.98F
$$
MNZ033>034-036-042>043-049>051-058-059-301600-
   Central Minnesota

CITY           SKY/WX    TMP DP  RH WIND       PRES   REMARKS
ST CLOUD       MOSUNNY   72  54  53 S5        29.98F
SAUK CENTRE    FAIR      73  53  49 W3        29.98F
PAYNESVILLE    MOSUNNY   73  50  43 W3        29.99S
AITKIN         MOSUNNY   75  46  35 W5        29.97S
PINE RIVER     SUNNY     72  54  53 W3        30.00S
BRAINERD       MOSUNNY   71  53  52 W3        29.98F
STAPLES        SUNNY     72  48  43 S3        29.98S
LONG PRAIRIE   FAIR      70  55  60 S5        30.00F
LITTLE FALLS   SUNNY     70  52  52 SW5       29.99F
LITCHFIELD     PTSUNNY   72  57  60 CALM      29.99S
BUFFALO        PTSUNNY   71  55  58 CALM      30.00F
MAPLE LAKE     PTSUNNY   70  58  64 CALM      30.00F
HUTCHINSON     SUNNY     73  59  62 CALM      30.00S
$$
MNZ037-044-045-052-053-301600-
   East Central Minnesota

CITY           SKY/WX    TMP DP  RH WIND       PRES   REMARKS
PRINCETON      CLOUDY    75  55  50 S5        29.99F
MORA           SUNNY     70  52  52 SW7       30.01S
CAMBRIDGE      SUNNY     75  57  53 S6        29.98F
RUSH CITY      SUNNY     72  58  60 CALM      30.01S
MOOSE LAKE     SUNNY     72  54  53 SW6       29.97S
HINCKLEY       FAIR      72  59  64 SW8       29.99S
CLOQUET        SUNNY     72  48  43 W5        29.98S
MCGREGOR       SUNNY     72  52  49 SW6       29.98F
$$
MNZ071>073-080-081-089-090-097-098-301600-
   Southwest Minnesota

CITY           SKY/WX    TMP DP  RH WIND       PRES   REMARKS
MONTEVIDEO     CLOUDY    73  57  56 SW5       29.99R
GRANITE FALLS  PTSUNNY   73  57  57 S12       30.00R
CANBY          CLOUDY    74  58  57 S8        29.99S
MARSHALL       MOSUNNY   72  56  57 S12       29.99R
REDWOOD FALLS  CLOUDY    71  56  58 S8        29.99R
OLIVIA         PTSUNNY   72  59  64 S6        29.98R
PIPESTONE      SUNNY     72  57  60 S9        30.01R
WINDOM         MOSUNNY   72  54  53 CALM      30.01F
WORTHINGTON    SUNNY     70  57  63 S9        30.02S
JACKSON        SUNNY     72  52  49 S8        30.03S
TRACY          CLOUDY    74  57  56 S7        30.00S
SLAYTON        MOSUNNY   72  53  52 S14       30.02S
$$
MNZ065>067-074>077-082>085-091>093-301600-
   South Central Minnesota

CITY           SKY/WX    TMP DP  RH WIND       PRES   REMARKS
MANKATO        CLOUDY    72  55  56 S6        30.01R
NEW ULM        CLOUDY    72  61  68 S9        30.00R
FAIRMONT       SUNNY     73  54  49 S7        30.02F
GLENCOE        SUNNY     73  60  64 CALM      29.99S
FARIBAULT      MOSUNNY   72  57  60 SE3       30.02F
OWATONNA       MOSUNNY   72  55  56 S9        30.03R
WASECA         CLOUDY    72  55  56 S8        30.04R
ALBERT LEA     MOSUNNY   72  55  56 S10       30.04R
$$
MNZ078>079-086>088-094>096-301600-
   Southeast Minnesota

CITY           SKY/WX    TMP DP  RH WIND       PRES   REMARKS
ROCHESTER      MOSUNNY   74  57  55 SE10      30.04F
RED WING         N/A     72  61  68 SE3       30.01F
STANTON        MOSUNNY   73  58  59 S3        30.00F
DODGE CENTER   MOSUNNY   73  55  53 S10       30.03S
WINONA         MOSUNNY   70  63  78 CALM      30.04S
AUSTIN         MOSUNNY   72  57  60 S7        30.04S
PRESTON        SUNNY     73  53  49 S8        30.06F
$$
ABBREVIATIONS USED IN REMARKS
   TC - TEMPERATURES IN CELSIUS
  WCI - WIND CHILL INDEX
   HX - HEAT INDEX
  VSB - VISIBILITY
$$




USA.gov is the U.S. government's official web portal to all federal, state and local government web resources and services.